Asheville, NC

11:48 AM EST on December 06, 2019 (GMT -0500)
Asheville Regional

Weather History for KAVL - August, 2019

Change the Weather History Date:

Monday, August 26, 2019

  Actual Average Record
Temperature  
Mean Temperature 67 °F 72 °F  
Max Temperature 72 °F 82 °F 93 °F (1943)
Min Temperature 62 °F 62 °F 49 °F (1952)
Degree Days  
Heating Degree Days 0 0  
Month to date heating degree days 0 0  
Since 1 June heating degree days 1 14  
Since 1 July heating degree days 0 0  
Cooling Degree Days 2 7  
Month to date cooling degree days 262 215  
Year to date cooling degree days 984 725  
Since 1 June cooling degree days 807 667  
Growing Degree Days 18 (Base 50)    
Moisture  
Dew Point 59 °F    
Average Humidity 77    
Maximum Humidity 93    
Minimum Humidity 61    
Precipitation  
Precipitation 0.01 in 0.14 in 4.01 in (2008)
Month to date precipitation 3.88 3.70  
Year to date precipitation 41.61 30.91  
Snow  
Snow 0.00 in 0.00 in 0.00 in ()
Month to date snowfall 0.0 0.0  
Since 1 June snowfall 0.0 0.0  
Since 1 July snowfall 0.0 0.0  
Snow Depth 0.00 in    
Sea Level Pressure  
Sea Level Pressure 30.11 in    
Wind  
Wind Speed 5 mph (SSE)    
Max Wind Speed 13 mph    
Max Gust Speed 18 mph    
Visibility 10 miles    
Events Rain    
T = Trace of Precipitation, MM = Missing Value Source: NWS Daily Summary

Daily Weather History Graph

Daily Weather History Graph

Search for Another Location

Airport or City:

Astronomy

Aug. 26, 2019 Rise Set
Actual Time 6:57 AM EDT 8:05 PM EDT
Civil Twilight 6:31 AM EDT 8:31 PM EDT
Nautical Twilight 6:00 AM EDT 9:03 PM EDT
Astronomical Twilight 5:27 AM EDT 9:35 PM EDT
Moon 2:29 AM EDT (8/26) 5:20 PM EDT (8/26)
Length of Visible Light 14h 00m
Length of Day
13h 07m
Waning Crescent, 19% of the Moon is Illuminated
Aug 26
Waning Crescent
Aug 30
New
Sep 5
First Quarter
Sep 14
Full
Sep 21
Last Quarter

Hourly Weather History & Observations

Time (EDT) Temp. Dew Point Humidity Pressure Visibility Wind Dir Wind Speed Gust Speed Precip Events Conditions
12:51 AM 64.4 °F 60.8 °F 88% 30.19 in 6.0 mi South 3.5 mph - 0.00 in   Overcast
1:14 AM 63.0 °F 61.0 °F 93% 30.18 in 4.0 mi South 4.6 mph - N/A   Overcast
1:22 AM 63.0 °F 61.0 °F 93% 30.18 in 8.0 mi South 4.6 mph - N/A   Overcast
1:29 AM 63.0 °F 61.0 °F 93% 30.18 in 9.0 mi South 4.6 mph - N/A   Overcast
1:52 AM 62.6 °F 60.8 °F 94% 30.18 in 10.0 mi SSW 4.6 mph - N/A   Overcast
1:54 AM 63.0 °F 60.1 °F 90% 30.12 in 10.0 mi South 3.5 mph - N/A   Overcast
2:29 AM 63.0 °F 60.1 °F 90% 30.17 in 10.0 mi South 3.5 mph - N/A   Overcast
2:54 AM 63.0 °F 60.1 °F 90% 30.10 in 10.0 mi SW 3.5 mph - N/A   Overcast
3:20 AM 63.0 °F 60.1 °F 90% 30.15 in 10.0 mi Calm Calm - N/A   Overcast
3:54 AM 64.0 °F 60.1 °F 87% 30.09 in 10.0 mi Calm Calm - N/A   Overcast
4:54 AM 63.0 °F 60.1 °F 90% 30.09 in 10.0 mi Calm Calm - N/A   Overcast
5:54 AM 63.0 °F 60.1 °F 90% 30.10 in 10.0 mi Calm Calm - N/A   Overcast
6:14 AM 63.0 °F 60.1 °F 90% 30.16 in 10.0 mi SSW 4.6 mph - N/A   Overcast
6:47 AM 63.0 °F 60.1 °F 90% 30.16 in 10.0 mi Calm Calm - N/A   Overcast
6:54 AM 63.0 °F 60.1 °F 90% 30.11 in 10.0 mi Calm Calm - N/A   Overcast
7:54 AM 63.0 °F 60.1 °F 90% 30.12 in 10.0 mi SSW 3.5 mph - N/A   Overcast
8:54 AM 64.9 °F 59.0 °F 81% 30.12 in 10.0 mi South 5.8 mph - N/A   Overcast
9:54 AM 66.0 °F 57.0 °F 73% 30.12 in 10.0 mi SSE 8.1 mph - N/A   Overcast
10:54 AM 66.9 °F 55.9 °F 68% 30.12 in 10.0 mi SSE 9.2 mph - N/A   Overcast
11:17 AM 68.0 °F 57.0 °F 68% 30.18 in 10.0 mi Variable 5.8 mph - N/A   Overcast
11:30 AM 69.1 °F 55.9 °F 63% 30.17 in 10.0 mi South 10.4 mph - N/A   Overcast
11:54 AM 70.0 °F 55.9 °F 61% 30.11 in 10.0 mi South 11.5 mph - N/A   Overcast
12:54 PM 71.1 °F 57.0 °F 61% 30.09 in 10.0 mi South 10.4 mph - N/A   Overcast
1:27 PM 70.0 °F 57.9 °F 65% 30.15 in 10.0 mi SSE 9.2 mph - N/A   Overcast
1:54 PM 71.1 °F 57.9 °F 63% 30.08 in 10.0 mi Variable 4.6 mph - N/A   Overcast
2:02 PM 71.1 °F 57.9 °F 63% 30.15 in 10.0 mi SSE 8.1 mph - N/A   Overcast
2:30 PM 70.0 °F 57.9 °F 65% 30.14 in 10.0 mi Variable 5.8 mph - N/A   Overcast
2:54 PM 70.0 °F 57.9 °F 65% 30.07 in 10.0 mi SSE 5.8 mph - N/A   Overcast
3:54 PM 71.1 °F 59.0 °F 66% 30.05 in 10.0 mi Variable 4.6 mph - N/A   Overcast
4:54 PM 70.0 °F 59.0 °F 68% 30.04 in 10.0 mi SSE 6.9 mph - N/A   Overcast
5:08 PM 71.1 °F 60.1 °F 68% 30.10 in 10.0 mi Variable 5.8 mph - N/A   Overcast
5:45 PM 70.0 °F 60.1 °F 71% 30.11 in 10.0 mi SSE 5.8 mph - N/A   Overcast
5:54 PM 70.0 °F 60.1 °F 71% 30.04 in 10.0 mi SE 4.6 mph - N/A   Overcast
6:05 PM 71.1 °F 60.1 °F 68% 30.10 in 10.0 mi Variable 4.6 mph - N/A   Overcast
6:49 PM 69.8 °F 60.8 °F 73% 30.10 in 10.0 mi SE 5.8 mph - N/A   Overcast
6:54 PM 70.0 °F 60.1 °F 71% 30.04 in 10.0 mi SE 6.9 mph - N/A   Overcast
7:54 PM 69.1 °F 60.1 °F 73% 30.04 in 10.0 mi SE 5.8 mph - N/A   Overcast
8:08 PM 69.1 °F 60.1 °F 73% 30.10 in 10.0 mi SE 4.6 mph - N/A   Overcast
8:54 PM 68.0 °F 61.0 °F 78% 30.05 in 10.0 mi SSE 3.5 mph - N/A   Overcast
9:54 PM 68.0 °F 61.0 °F 78% 30.07 in 10.0 mi South 4.6 mph - N/A   Overcast
10:54 PM 66.9 °F 61.0 °F 81% 30.07 in 10.0 mi South 4.6 mph - N/A   Overcast
11:54 PM 66.9 °F 61.0 °F 81% 30.08 in 10.0 mi South 5.8 mph - 0.00 in Rain Light Rain